FW9380 Weather Reports


time (UTC)temp
F
wind
direction
speed
knots
gust
knots
rain 1hr
in
rain 24hr
in
rain mn
in
humidity
%
barometer
mb
20211025035147 71 73 1.7 2.6 0.00 0.11 0.11 97 1014.8
20211025034647 71 40 1.7 2.6 0.00 0.11 0.11 97 1015.0
20211025034145 71 284 0.9 1.7 0.00 0.11 0.11 97 1015.0
20211025033645 71 55 0.9 0.9 0.00 0.11 0.11 97 1014.8
20211025033144 71 99 1.7 1.7 0.00 0.11 0.11 97 1014.8
20211025032641 71 66 0.0 0.0 0.00 0.11 0.11 97 1014.8
20211025032136 71 169 0.0 0.0 0.00 0.11 0.11 97 1014.9
20211025031636 71 73 0.0 0.9 0.00 0.11 0.11 97 1014.9
20211025031136 71 94 1.7 1.7 0.00 0.11 0.11 98 1014.8
20211025030634 71 303 0.0 0.9 0.00 0.11 0.11 97 1014.6
20211025030133 70 139 0.9 1.7 0.00 0.11 0.11 97 1014.7
20211025025631 71 78 1.7 2.6 0.00 0.11 0.11 97 1014.8
20211025025130 70 105 0.0 0.0 0.00 0.11 0.11 97 1014.8
20211025024628 70 65 0.9 1.7 0.00 0.11 0.11 97 1014.8
20211025024128 70 42 2.6 4.3 0.00 0.11 0.11 97 1014.9
20211025023628 69 43 1.7 1.7 0.00 0.11 0.11 97 1014.8
20211025023127 69 147 0.0 0.9 0.00 0.11 0.11 97 1015.0
20211025022625 69 70 0.0 0.9 0.00 0.11 0.11 97 1014.9
20211025022123 70 71 0.9 1.7 0.00 0.11 0.11 97 1014.9
20211025021622 70 63 0.9 0.9 0.00 0.11 0.11 97 1015.1
20211025021120 70 67 0.0 0.9 0.07 0.11 0.11 97 1015.1
20211025020618 70 343 0.9 2.6 0.07 0.11 0.11 96 1014.9
20211025020117 71 97 0.0 0.0 0.00 0.09 0.09 96 1015.1
20211025015616 71 107 0.9 0.9 0.11 0.09 0.09 96 1015.2
20211025015114 71 193 0.9 1.7 0.18 0.09 0.09 96 1015.0
20211025014615 71 104 2.6 4.3 0.16 0.08 0.08 95 1015.1
20211025014114 71 125 0.0 0.0 0.16 0.06 0.06 95 1015.1
20211025013614 72 119 2.6 4.3 0.04 0.04 0.04 92 1015.0
20211025013113 73 123 0.9 0.9 0.00 0.03 0.03 89 1015.0
20211025012611 73 64 1.7 2.6 0.00 0.03 0.03 88 1015.0
20211025012110 74 188 0.0 0.0 0.00 0.03 0.03 88 1014.9
20211025011609 75 111 0.0 0.0 0.00 0.03 0.03 89 1015.0
20211025011109 74 27 0.9 0.9 0.00 0.03 0.03 88 1014.6
20211025010609 74 89 0.0 0.9 0.00 0.03 0.03 87 1014.5
20211025010106 74 60 0.0 0.9 0.00 0.03 0.03 88 1014.5
20211025005605 74 53 0.0 0.0 0.00 0.03 0.03 89 1014.4
20211025005104 74 189 0.0 0.9 0.00 0.03 0.03 89 1014.3
20211025004600 74 89 0.0 0.0 0.00 0.03 0.03 90 1014.5
20211025004059 74 36 0.0 0.0 0.00 0.03 0.03 89 1014.5
20211025003558 74 49 0.0 0.0 0.00 0.03 0.03 89 1014.1
20211025003057 74 258 1.7 2.6 0.00 0.03 0.03 89 1014.3
20211025002555 74 86 1.7 1.7 0.00 0.03 0.03 90 1014.1
20211025002054 74 42 0.0 0.9 0.00 0.03 0.03 90 1014.1
20211025001550 74 23 4.3 7.0 0.00 0.03 0.03 91 1014.0
20211025001050 74 71 1.7 1.7 0.00 0.03 0.03 91 1014.0
20211025000549 74 86 2.6 2.6 0.00 0.03 0.03 91 1014.0
20211025000049 74 158 0.9 0.9 0.00 0.03 0.03 91 1014.3
20211024235549 74 66 0.9 0.9 0.00 0.03 0.03 91 1014.2
20211024235047 74 274 1.7 1.7 0.00 0.03 0.03 92 1014.0
20211024234545 74 104 0.9 0.9 0.00 0.03 0.03 92 1014.1
20211024234044 74 63 1.7 2.6 0.00 0.03 0.03 92 1014.0
20211024233544 74 73 0.9 1.7 0.00 0.03 0.03 92 1014.1
20211024233043 75 132 0.9 0.9 0.00 0.03 0.03 92 1014.1
20211024232541 74 59 0.9 0.9 0.00 0.03 0.03 92 1014.0
20211024232040 74 206 0.9 1.7 0.00 0.03 0.03 93 1013.9
20211024231538 74 57 0.9 1.7 0.00 0.03 0.03 93 1014.1
20211024231036 74 259 0.9 1.7 0.00 0.03 0.03 93 1013.9
20211024230536 74 44 0.0 0.9 0.00 0.03 0.03 92 1014.0
20211024230034 74 78 0.0 0.9 0.00 0.03 0.03 92 1013.8
20211024225533 74 307 1.7 1.7 0.00 0.03 0.03 92 1014.1
20211024225031 74 72 0.0 0.0 0.00 0.03 0.03 92 1014.2
20211024224528 74 178 0.9 0.9 0.00 0.03 0.03 92 1013.9
20211024224025 74 181 0.9 0.9 0.00 0.03 0.03 93 1013.8
20211024223522 74 95 0.0 0.9 0.00 0.03 0.03 93 1013.9
20211024223018 74 32 0.9 2.6 0.00 0.03 0.03 93 1013.9
20211024222517 74 97 0.9 0.9 0.00 0.03 0.03 92 1014.0
20211024222012 73 33 2.6 4.3 0.00 0.03 0.03 92 1013.7
20211024221512 73 315 0.9 0.9 0.00 0.03 0.03 92 1014.2
20211024221012 73 71 0.0 0.0 0.00 0.03 0.03 92 1014.1
20211024220511 73 77 0.0 0.0 0.00 0.03 0.03 92 1014.1
20211024220009 73 16 0.0 0.9 0.00 0.03 0.03 92 1014.0
20211024215507 73 54 0.0 0.0 0.00 0.03 0.03 92 1013.9
20211024215005 73 133 0.0 0.0 0.00 0.03 0.03 92 1014.2
20211024214505 73 144 0.0 0.9 0.00 0.03 0.03 93 1014.4
20211024214004 73 175 0.0 0.9 0.00 0.03 0.03 95 1014.2
20211024213503 73 121 0.0 0.0 0.00 0.03 0.03 96 1013.8
20211024213000 73 94 0.0 0.9 0.00 0.03 0.03 96 1013.8
20211024212456 73 48 0.9 0.9 0.00 0.03 0.03 96 1013.9
20211024211956 72 61 0.0 0.0 0.00 0.03 0.03 95 1014.0
20211024211455 72 72 0.0 0.9 0.00 0.03 0.03 95 1014.1
20211024210953 72 54 0.9 0.9 0.00 0.03 0.03 95 1013.9
20211024210453 72 77 0.0 0.0 0.00 0.03 0.03 95 1014.0
20211024205952 72 162 0.0 0.9 0.00 0.03 0.03 95 1014.2
20211024205450 72 153 0.9 0.9 0.00 0.03 0.03 95 1014.2
20211024204950 72 66 0.0 0.0 0.00 0.03 0.03 95 1014.0
20211024204449 72 75 0.0 0.0 0.07 0.03 0.03 94 1014.1
20211024203948 72 119 0.0 0.0 0.07 0.03 0.03 94 1014.3
20211024203440 72 96 0.0 0.9 0.04 0.02 0.02 93 1014.4
20211024202937 73 89 0.0 0.0 0.16 0.02 0.02 93 1014.4
20211024202436 73 135 0.0 0.9 0.11 0.02 0.02 91 1014.4
20211024201935 75 81 1.7 2.6 0.00 0.00 0.00 88 1014.5
20211024201434 75 56 0.9 1.7 0.00 0.00 0.00 87 1014.6
20211024200933 75 55 0.9 0.9 0.00 0.00 0.00 85 1014.5
20211024200433 75 84 0.0 0.0 0.00 0.00 0.00 84 1014.5
20211024195932 74 98 0.9 0.9 0.00 0.00 0.00 83 1014.4
20211024195430 74 72 1.7 1.7 0.00 0.00 0.00 83 1014.4
20211024194930 74 73 0.0 0.9 0.00 0.00 0.00 82 1014.4
20211024194428 74 66 0.0 0.0 0.00 0.00 0.00 82 1014.4
20211024193926 74 68 0.0 0.9 0.00 0.00 0.00 82 1014.5
20211024193422 74 88 0.0 0.0 0.00 0.00 0.00 82 1014.5
20211024192922 74 96 0.9 0.9 0.00 0.00 0.00 82 1014.5
20211024192421 74 84 0.0 0.0 0.00 0.00 0.00 82 1014.4
20211024191919 74 141 1.7 2.6 0.00 0.00 0.00 82 1014.4
20211024191418 74 70 0.0 0.9 0.00 0.00 0.00 82 1014.4
20211024190912 74 81 0.9 0.9 0.00 0.00 0.00 81 1014.5
20211024190412 74 66 0.0 0.9 0.00 0.00 0.00 81 1014.6
20211024185911 74 75 0.0 0.0 0.00 0.00 0.00 81 1014.7
20211024185410 74 66 0.0 0.0 0.00 0.00 0.00 82 1014.9
20211024184908 74 89 0.0 0.0 0.00 0.00 0.00 82 1014.9
20211024184407 74 104 0.9 0.9 0.00 0.00 0.00 81 1015.1
20211024183905 74 86 0.0 0.0 0.00 0.00 0.00 82 1015.1
20211024183404 74 91 0.0 0.0 0.00 0.00 0.00 82 1015.0
20211024182904 74 64 0.0 0.9 0.00 0.00 0.00 81 1015.0
20211024182403 74 28 0.9 0.9 0.00 0.00 0.00 81 1015.1
20211024181901 74 97 0.9 1.7 0.00 0.00 0.00 82 1015.3
20211024181359 74 80 0.9 0.9 0.00 0.00 0.00 82 1015.2
20211024180857 74 68 0.0 0.0 0.00 0.00 0.00 83 1015.1
20211024180356 74 53 0.0 0.0 0.00 0.00 0.00 83 1015.6
20211024175855 74 78 0.9 0.9 0.00 0.00 0.00 83 1015.6
20211024175353 74 60 0.0 0.9 0.00 0.00 0.00 83 1015.6
20211024174852 74 49 0.0 0.9 0.00 0.00 0.00 82 1015.9
20211024174352 74 65 0.0 0.0 0.00 0.00 0.00 82 1015.8
20211024173850 74 41 0.0 0.0 0.00 0.00 0.00 81 1016.1
20211024173349 74 74 0.0 0.0 0.00 0.00 0.00 81 1016.0
20211024172845 74 63 0.0 0.9 0.00 0.00 0.00 80 1016.1
20211024172344 74 75 0.0 0.0 0.00 0.00 0.00 81 1016.4
20211024171843 74 79 0.0 0.0 0.00 0.00 0.00 81 1016.4
20211024171339 74 66 0.0 0.0 0.00 0.00 0.00 81 1016.6
20211024170837 74 70 0.0 0.0 0.00 0.00 0.00 81 1016.6
20211024170337 74 81 0.0 0.9 0.00 0.00 0.00 82 1016.7
20211024165833 74 73 0.0 0.0 0.00 0.00 0.00 82 1016.7
20211024165333 74 56 0.0 0.0 0.00 0.00 0.00 83 1016.9
20211024164832 75 25 0.0 0.9 0.00 0.00 0.00 83 1016.9
20211024164329 74 29 0.0 0.0 0.00 0.00 0.00 82 1017.0
20211024163827 74 46 0.0 0.0 0.00 0.00 0.00 82 1017.1
20211024163327 74 51 0.0 0.0 0.00 0.00 0.00 82 1017.0
20211024162824 74 48 0.0 0.0 0.00 0.00 0.00 82 1017.2
20211024162323 74 55 0.0 0.0 0.00 0.00 0.00 82 1017.4
20211024161823 74 50 0.0 0.9 0.00 0.00 0.00 82 1017.3
20211024161321 74 50 0.0 0.0 0.00 0.00 0.00 82 1017.4
20211024160819 74 83 0.0 0.0 0.00 0.00 0.00 81 1017.3
20211024160318 74 63 0.9 0.9 0.00 0.00 0.00 81 1017.4
20211024155813 74 39 0.0 0.0 0.00 0.00 0.00 81 1017.6
20211024155311 74 53 0.0 0.9 0.00 0.00 0.00 80 1017.2
20211024154811 74 43 1.7 1.7 0.00 0.00 0.00 81 1017.4
20211024154310 73 67 0.0 0.0 0.00 0.00 0.00 82 1017.8
20211024153810 73 66 0.0 0.0 0.00 0.00 0.00 81 1017.7
20211024153308 73 22 0.0 0.9 0.00 0.00 0.00 81 1017.5
20211024152807 73 84 0.0 0.0 0.00 0.00 0.00 82 1017.7
20211024152306 73 55 0.0 0.0 0.00 0.00 0.00 81 1017.9
20211024151802 73 49 1.7 2.6 0.00 0.00 0.00 81 1017.4
20211024151301 73 86 0.9 0.9 0.00 0.00 0.00 81 1017.5
20211024150800 72 47 0.0 0.0 0.00 0.00 0.00 82 1017.6
20211024150300 72 82 0.9 0.9 0.00 0.00 0.00 81 1017.6
20211024145756 72 51 0.0 0.0 0.00 0.00 0.00 81 1017.6
20211024145255 72 65 1.7 1.7 0.00 0.00 0.00 82 1017.4
20211024144754 72 56 0.9 0.9 0.00 0.00 0.00 81 1017.4
20211024144254 71 100 0.9 0.9 0.00 0.00 0.00 82 1017.5
20211024143752 71 80 0.0 0.0 0.00 0.00 0.00 83 1017.3
20211024143248 71 28 1.7 1.7 0.00 0.00 0.00 82 1017.4
20211024142747 70 53 0.0 0.9 0.00 0.00 0.00 82 1017.3
20211024142247 70 72 0.0 0.9 0.00 0.00 0.00 83 1017.2
20211024141744 70 84 0.9 1.7 0.00 0.00 0.00 82 1017.0
20211024141243 70 71 0.0 0.9 0.00 0.00 0.00 82 1017.1
20211024140742 70 69 0.0 0.9 0.00 0.00 0.00 81 1016.9
20211024140241 70 40 1.7 1.7 0.00 0.00 0.00 81 1017.1
20211024135741 71 68 0.9 1.7 0.00 0.00 0.00 80 1016.8
20211024135239 71 95 1.7 4.3 0.00 0.00 0.00 80 1016.7
20211024134738 71 103 0.0 0.0 0.00 0.00 0.00 81 1016.5
20211024134237 71 20 1.7 2.6 0.00 0.00 0.00 82 1016.8
20211024133737 71 37 0.0 0.9 0.00 0.00 0.00 84 1016.5
20211024133235 70 40 1.7 2.6 0.00 0.00 0.00 83 1016.7
20211024132735 70 83 0.9 1.7 0.00 0.00 0.00 84 1016.7
20211024132234 70 61 1.7 2.6 0.00 0.00 0.00 84 1016.6
20211024131733 70 96 0.9 1.7 0.00 0.00 0.00 84 1016.7
20211024131231 69 52 0.0 0.9 0.00 0.00 0.00 85 1016.6
20211024130730 69 38 0.0 0.0 0.00 0.00 0.00 85 1016.7
20211024130228 69 53 0.9 0.9 0.00 0.00 0.00 85 1016.7
20211024125727 68 65 0.9 0.9 0.00 0.00 0.00 85 1016.5
20211024125225 68 75 0.0 0.0 0.00 0.00 0.00 86 1016.7
20211024124724 68 68 0.0 0.0 0.00 0.00 0.00 87 1016.6
20211024124221 67 52 0.9 1.7 0.00 0.00 0.00 89 1016.4
20211024123720 67 72 0.0 0.0 0.00 0.00 0.00 89 1016.5
20211024123219 67 64 0.0 0.0 0.00 0.00 0.00 90 1016.3
20211024122717 67 58 0.0 0.0 0.00 0.00 0.00 90 1016.5
20211024122216 66 21 0.9 1.7 0.00 0.00 0.00 90 1016.4
20211024121713 67 60 0.0 0.0 0.00 0.00 0.00 90 1016.1
20211024121211 67 60 0.0 0.0 0.00 0.00 0.00 90 1016.1
20211024120710 67 60 0.0 0.0 0.00 0.00 0.00 89 1015.9
20211024120208 67 79 0.0 0.0 0.00 0.00 0.00 89 1015.7
20211024115708 67 71 0.0 0.0 0.00 0.00 0.00 89 1015.6
20211024115207 67 71 0.0 0.0 0.00 0.00 0.00 89 1015.8
20211024114706 67 87 0.0 0.0 0.00 0.00 0.00 90 1015.7
20211024114205 67 78 0.0 0.0 0.00 0.00 0.00 90 1015.5
20211024113704 67 94 0.0 0.0 0.00 0.00 0.00 91 1015.6
20211024113201 66 81 0.9 0.9 0.00 0.00 0.00 92 1015.7
20211024112658 67 80 0.0 0.0 0.00 0.00 0.00 92 1015.6
20211024112156 66 49 0.0 0.0 0.00 0.00 0.00 92 1015.6
20211024111656 66 58 0.0 0.0 0.00 0.00 0.00 93 1015.6
20211024111154 66 51 0.0 0.0 0.00 0.00 0.00 92 1015.4
20211024110654 67 51 0.0 0.0 0.00 0.00 0.00 92 1015.6
20211024110153 67 67 0.0 0.0 0.00 0.00 0.00 91 1015.5
20211024105651 67 67 0.0 0.0 0.00 0.00 0.00 91 1015.4
20211024105150 68 65 0.0 0.0 0.00 0.00 0.00 90 1015.3
20211024104648 68 65 0.0 0.0 0.00 0.00 0.00 89 1015.2
20211024104146 68 58 0.0 0.0 0.00 0.00 0.00 89 1015.3
20211024103643 67 41 0.0 0.0 0.00 0.00 0.00 90 1015.4
20211024103143 67 56 0.9 0.9 0.00 0.00 0.00 89 1015.1
20211024102642 67 26 0.0 0.0 0.00 0.00 0.00 89 1015.4
20211024102141 67 49 0.0 0.0 0.00 0.00 0.00 89 1015.6
20211024101639 67 71 0.0 0.0 0.00 0.00 0.00 89 1015.3
20211024101138 67 55 0.0 0.0 0.00 0.00 0.00 90 1015.3
20211024100634 67 55 0.0 0.0 0.00 0.00 0.00 89 1015.3
20211024100133 66 46 0.9 1.7 0.00 0.00 0.00 91 1015.3
20211024095633 66 71 0.0 0.0 0.00 0.00 0.00 93 1015.4
20211024095131 66 47 0.0 0.0 0.00 0.00 0.00 93 1015.5
20211024094629 66 47 0.0 0.0 0.00 0.00 0.00 93 1015.5
20211024094128 65 52 0.0 0.0 0.00 0.00 0.00 93 1015.3
20211024093627 66 52 0.0 0.0 0.00 0.00 0.00 93 1015.4
20211024093125 66 52 0.0 0.0 0.00 0.00 0.00 92 1015.2
20211024092626 66 52 0.0 0.0 0.00 0.00 0.00 93 1015.1
20211024092124 65 34 0.0 0.0 0.00 0.00 0.00 94 1015.2
20211024091623 65 37 0.0 0.0 0.00 0.00 0.00 94 1015.3
20211024091122 65 37 0.0 0.0 0.00 0.00 0.00 93 1015.4
20211024090620 65 37 0.0 0.0 0.00 0.00 0.00 93 1015.4
20211024090117 65 37 0.0 0.0 0.00 0.00 0.00 93 1015.4
20211024085617 65 36 0.0 0.0 0.00 0.00 0.00 94 1015.4
20211024085115 65 59 0.0 0.0 0.00 0.00 0.00 93 1015.3
20211024084615 65 59 0.0 0.0 0.00 0.00 0.00 93 1015.5
20211024084114 65 59 0.0 0.0 0.00 0.00 0.00 94 1015.6
20211024083612 65 50 0.0 0.0 0.00 0.00 0.00 94 1015.7
20211024083111 65 50 0.0 0.0 0.00 0.00 0.00 94 1015.7
20211024082609 65 50 0.0 0.0 0.00 0.00 0.00 94 1015.7
20211024082109 65 50 0.0 0.0 0.00 0.00 0.00 93 1015.6
20211024081607 66 50 0.0 0.0 0.00 0.00 0.00 93 1015.7
20211024081106 66 54 0.0 0.0 0.00 0.00 0.00 93 1015.7
20211024080604 66 54 0.0 0.0 0.00 0.00 0.00 93 1015.5
20211024080103 66 54 0.0 0.0 0.00 0.00 0.00 93 1015.7
20211024075603 66 72 0.0 0.0 0.00 0.00 0.00 94 1015.7
20211024075100 66 72 0.0 0.0 0.00 0.00 0.00 94 1015.8
20211024074558 66 72 0.0 0.0 0.00 0.00 0.00 94 1016.0
20211024074057 66 72 0.0 0.0 0.00 0.00 0.00 94 1015.8
20211024073553 66 72 0.0 0.0 0.00 0.00 0.00 94 1015.7
20211024073052 65 71 0.0 0.0 0.00 0.00 0.00 94 1015.8
20211024072552 65 72 0.0 0.0 0.00 0.00 0.00 95 1015.8
20211024072050 65 72 0.0 0.0 0.00 0.00 0.00 95 1015.7
20211024071543 65 72 0.0 0.0 0.00 0.00 0.00 95 1015.8
20211024071039 65 72 0.0 0.0 0.00 0.00 0.00 95 1015.6
20211024070539 65 72 0.0 0.0 0.00 0.00 0.00 95 1015.8
20211024070036 65 72 0.0 0.0 0.00 0.00 0.00 96 1016.0
20211024065536 64 73 0.0 0.0 0.00 0.00 0.00 97 1016.0
20211024065035 64 77 0.0 0.0 0.00 0.00 0.00 97 1015.8
20211024064533 63 85 0.0 0.0 0.00 0.00 0.00 98 1016.0
20211024064032 63 85 0.0 0.0 0.00 0.00 0.00 98 1015.9
20211024063531 62 85 0.0 0.0 0.00 0.00 0.00 98 1016.0
20211024063031 62 85 0.0 0.0 0.00 0.00 0.00 98 1015.9
20211024062528 62 85 0.0 0.0 0.00 0.00 0.00 98 1016.0
20211024062027 63 85 0.0 0.0 0.00 0.00 0.00 98 1015.9
20211024061525 63 85 0.0 0.0 0.00 0.00 0.00 98 1015.9
20211024061023 63 85 0.0 0.0 0.00 0.00 0.00 98 1015.8
20211024060522 63 85 0.0 0.0 0.00 0.00 0.00 98 1015.9
20211024060020 63 85 0.0 0.0 0.00 0.00 0.00 98 1016.0
20211024055519 63 85 0.0 0.0 0.00 0.00 0.00 98 1016.0
20211024055020 63 85 0.0 0.0 0.00 0.00 0.00 98 1016.1
20211024054517 63 85 0.0 0.0 0.00 0.00 0.00 98 1015.7
20211024054017 63 85 0.0 0.0 0.00 0.00 0.00 98 1016.0
20211024053517 64 85 0.0 0.0 0.00 0.00 0.00 98 1016.0
20211024053012 64 85 0.0 0.0 0.00 0.00 0.00 98 1016.0
20211024052512 64 85 0.0 0.0 0.00 0.00 0.00 98 1015.9
20211024052009 64 85 0.0 0.0 0.00 0.00 0.00 98 1016.0
20211024051507 64 85 0.0 0.0 0.00 0.00 0.00 98 1016.1
20211024051005 64 85 0.0 0.0 0.00 0.00 0.00 98 1016.1
20211024050504 64 85 0.0 0.0 0.00 0.00 0.00 98 1016.1
20211024050003 65 85 0.0 0.0 0.00 0.00 0.00 98 1016.2
20211024045501 65 85 0.0 0.0 0.00 0.00 0.00 98 1016.0
20211024045000 65 118 0.0 0.0 0.00 0.00 0.00 98 1016.3
20211024044500 65 118 0.0 0.0 0.00 0.00 0.00 98 1016.3
20211024043959 65 118 0.0 0.0 0.00 0.00 0.00 98 1016.2
20211024043457 66 118 0.0 0.0 0.00 0.00 0.00 98 1016.2
20211024042957 66 118 0.0 0.0 0.00 0.00 0.00 98 1016.3
20211024042456 66 118 0.0 0.0 0.00 0.00 0.00 98 1016.3
20211024041954 66 118 0.0 0.0 0.00 0.00 0.00 98 1016.4
20211024041453 66 118 0.0 0.0 0.00 0.00 0.00 98 1016.3
20211024040952 66 118 0.0 0.0 0.00 0.00 0.00 98 1016.5
20211024040448 66 118 0.0 0.0 0.00 0.00 0.00 98 1016.2
20211024035948 66 118 0.0 0.0 0.00 0.00 0.00 98 1016.1
20211024035447 66 118 0.0 0.0 0.00 0.00 0.00 98 1016.4